| time (UTC) | temp C | wind direction | speed KPH | gust KPH | rain 1hr cm | rain 24hr cm | rain mn cm | humidity % | barometer mb |
| 20260504040033 | 2 | 226 | 9.7 | 27.4 | 0.08 | 1.83 | 0.10 | 94 | 990.5 |
| 20260504034538 | 2 | 304 | 8.0 | 32.2 | 0.08 | 1.80 | 0.08 | 94 | 989.9 |
| 20260504033036 | 2 | 302 | 8.0 | 30.6 | 0.08 | 1.78 | 0.05 | 94 | 989.5 |
| 20260504031523 | 2 | 254 | 11.3 | 30.6 | 0.05 | 1.75 | 0.05 | 94 | 989.1 |
| 20260504030018 | 2 | 278 | 8.0 | 24.1 | 0.03 | 1.73 | 0.00 | 94 | 988.6 |
| 20260504024521 | 2 | 294 | 6.4 | 29.0 | 0.03 | 1.73 | 1.73 | 94 | 988.1 |
| 20260504023013 | 2 | 251 | 6.4 | 22.5 | 0.03 | 1.70 | 1.70 | 94 | 987.7 |
| 20260504021513 | 3 | 352 | 8.0 | 17.7 | 0.03 | 1.70 | 1.70 | 93 | 987.1 |
| 20260504020015 | 3 | 218 | 4.8 | 19.3 | 0.05 | 1.70 | 1.70 | 94 | 986.4 |
| 20260504014515 | 3 | 338 | 4.8 | 20.9 | 0.05 | 1.70 | 1.70 | 94 | 985.7 |
| 20260504013011 | 3 | 264 | 8.0 | 20.9 | 0.03 | 1.68 | 1.68 | 94 | 984.7 |
| 20260504011512 | 2 | 63 | 4.8 | 27.4 | 0.03 | 1.65 | 1.65 | 94 | 983.7 |
| 20260504010010 | 2 | 119 | 6.4 | 29.0 | 0.03 | 1.65 | 1.65 | 94 | 982.9 |
| 20260504004511 | 2 | 319 | 8.0 | 27.4 | 0.03 | 1.65 | 1.65 | 94 | 983.0 |
| 20260504003008 | 3 | 203 | 8.0 | 24.1 | 0.05 | 1.65 | 1.65 | 94 | 982.3 |
| 20260504001505 | 3 | 320 | 4.8 | 24.1 | 0.05 | 1.65 | 1.65 | 95 | 981.4 |
| 20260504000004 | 4 | 182 | 4.8 | 22.5 | 0.05 | 1.65 | 1.65 | 95 | 980.0 |
| 20260503234505 | 4 | 326 | 6.4 | 24.1 | 0.10 | 1.65 | 1.65 | 95 | 979.5 |
| 20260503233005 | 4 | 144 | 4.8 | 22.5 | 0.15 | 1.63 | 1.63 | 95 | 979.0 |
| 20260503231502 | 4 | 134 | 4.8 | 14.5 | 0.25 | 1.60 | 1.60 | 95 | 979.1 |
| 20260503230002 | 5 | 333 | 3.2 | 17.7 | 0.33 | 1.57 | 1.57 | 95 | 978.9 |
| 20260503224600 | 5 | 141 | 4.8 | 19.3 | 0.33 | 1.55 | 1.55 | 95 | 979.2 |
| 20260503223057 | 5 | 326 | 4.8 | 25.7 | 0.30 | 1.42 | 1.42 | 95 | 980.0 |
| 20260503221554 | 5 | 12 | 11.3 | 24.1 | 0.20 | 1.35 | 1.35 | 95 | 980.7 |
| 20260503220107 | 5 | 92 | 9.7 | 38.6 | 0.13 | 1.27 | 1.27 | 95 | 980.8 |
| 20260503214550 | 4 | 113 | 16.1 | 29.0 | 0.05 | 1.19 | 1.19 | 95 | 981.2 |
| 20260503213049 | 4 | 359 | 17.7 | 40.2 | 0.10 | 1.17 | 1.17 | 95 | 981.6 |
| 20260503211600 | 3 | 71 | 19.3 | 40.2 | 0.08 | 1.14 | 1.14 | 94 | 982.5 |
| 20260503210042 | 3 | 348 | 17.7 | 37.0 | 0.13 | 1.14 | 1.14 | 94 | 983.5 |
| 20260503204541 | 3 | 95 | 17.7 | 35.4 | 0.15 | 1.14 | 1.14 | 94 | 984.3 |
| 20260503203037 | 3 | 44 | 17.7 | 45.1 | 0.13 | 1.07 | 1.07 | 94 | 984.8 |
| 20260503201534 | 3 | 88 | 16.1 | 37.0 | 0.15 | 1.07 | 1.07 | 94 | 985.9 |
| 20260503200034 | 3 | 77 | 16.1 | 38.6 | 0.20 | 1.02 | 1.02 | 94 | 986.9 |
| 20260503194531 | 3 | 54 | 14.5 | 35.4 | 0.23 | 0.99 | 0.99 | 94 | 987.5 |
| 20260503193026 | 3 | 70 | 16.1 | 40.2 | 0.18 | 0.94 | 0.94 | 94 | 988.7 |
| 20260503191525 | 3 | 116 | 19.3 | 46.7 | 0.15 | 0.89 | 0.89 | 94 | 989.5 |
| 20260503190024 | 3 | 118 | 14.5 | 38.6 | 0.18 | 0.81 | 0.81 | 94 | 990.7 |
| 20260503184521 | 3 | 13 | 19.3 | 37.0 | 0.30 | 0.76 | 0.76 | 94 | 991.8 |
| 20260503183023 | 3 | 83 | 19.3 | 41.8 | 0.38 | 0.76 | 0.76 | 94 | 992.8 |
| 20260503181519 | 3 | 73 | 14.5 | 40.2 | 0.41 | 0.71 | 0.71 | 94 | 993.6 |
| 20260503180004 | 3 | 47 | 17.7 | 38.6 | 0.33 | 0.64 | 0.64 | 94 | 994.3 |
| 20260503174600 | 3 | 51 | 16.1 | 37.0 | 0.20 | 0.46 | 0.46 | 94 | 995.4 |
| 20260503173059 | 4 | 51 | 16.1 | 38.6 | 0.13 | 0.38 | 0.38 | 94 | 996.1 |
| 20260503171551 | 4 | 32 | 17.7 | 33.8 | 0.08 | 0.33 | 0.33 | 94 | 997.1 |
| 20260503120109 | 5 | 134 | 4.8 | 11.3 | 0.00 | 0.00 | 0.00 | 89 | 1008.7 |
| 20260503110151 | 5 | 61 | 1.6 | 8.0 | 0.00 | 0.03 | 0.00 | 88 | 1010.0 |
| 20260503081536 | 4 | 126 | 0.0 | 0.0 | 0.00 | 0.03 | 0.00 | 87 | 1012.0 |
| 20260503071528 | 5 | 105 | 0.0 | 0.0 | 0.00 | 0.03 | 0.00 | 84 | 1012.7 |
| 20260503054518 | 6 | 345 | 0.0 | 1.6 | 0.00 | 0.03 | 0.00 | 79 | 1013.1 |
| 20260503053010 | 6 | 42 | 0.0 | 0.0 | 0.00 | 0.03 | 0.00 | 77 | 1013.3 |
| 20260503051508 | 7 | 41 | 0.0 | 1.6 | 0.00 | 0.03 | 0.00 | 75 | 1013.4 |
| 20260503050007 | 7 | 305 | 0.0 | 3.2 | 0.00 | 0.03 | 0.00 | 74 | 1013.6 |
| 20260503044505 | 7 | 258 | 0.0 | 3.2 | 0.00 | 0.03 | 0.00 | 74 | 1013.9 |
| 20260503043004 | 7 | 293 | 0.0 | 4.8 | 0.00 | 0.03 | 0.00 | 73 | 1014.1 |
| 20260503041501 | 7 | 279 | 0.0 | 4.8 | 0.00 | 0.03 | 0.00 | 73 | 1014.4 |